NOAA 16 DEB, 41071

Orbit data source: Space-Track

NOAA 16 DEB, 41071 is space debris in SSO originally from a launch on Thu, 21 Sep 2000 UTC launched from the Air Force Western Test Range (AFWTR). Debris objects in space refer to the collection of defunct objects orbiting the Earth. Examples of debris include non-operational satellites, rocket bodies, and fragments generated from explosions, collisions, or faulty payload assembly.

Loading next visibility...
Identifier
41071, 2000-055AE
Orbit
SSO
Country
Flag of USUS
Related business
Manufacturer
Unknown
Mission
Spacecraft
Bus & Motor
Unknown
Mass
Unknown
Launch date (UTC)
2000-09-21 (25 years ago)
Launch vehicle
Unknown
Launch site
Air Force Western Test Range (AFWTR)
Object type
Payload
Rocket body
Debris
Shape & HBR
Unknown shape, 0.2 m
Radar Cross Section
Small (<0.1 m²)

Expand to show TLE details & history
Last TLE update: 12 hours ago

TLE from 12 hours ago
0 NOAA 16 DEB
1 41071U 00055AE  25308.17806545  .00004449  00000-0  18120-2 0  9992
2 41071  98.8178  49.0323 0009271 280.6374  79.3762 14.27945950513746
Epoch: 2025-11-04T04:16Z
TLE epoch observation values (Epoch: 2025-11-04T04:16:24.854Z)
Latitude
-0.00007°
Longitude
-58.74007°
Altitude
800.306 km
Speed
7.454 km/s
True Right ascension
03h 16m 07s
True Declination
0° 00' 00"
Sunlit
Object was in full shadow at epoch
Visualization orbit readout
Latitude
Unknown
Longitude
Unknown
Altitude
Unknown
Speed
Unknown
Apparent Right ascension
Unknown
Apparent Declination
Unknown
Sunlit
N/A
Visualization observer readout
Local Sidereal Time
11:57:11
Azimuth
Unknown
Elevation
Unknown
Doppler factor
Unknown
Orbital elements
Apogee altitude
802.409 km
Perigee altitude
789.107 km
Semi-major axis
7,173.895 km
Eccentricity
0.00093
Inclination
98.8178°
RAAN
49.0323°
Arg. of periapsis
280.6374°
True anomaly
79.48064°
Mean anomaly
79.3762°
Eccentric anomaly
79.42842°
Mean motion
3.57199 °/min
Orbital period
100.78 mins
BSTAR
0.001812
Loading maneuver chart data...
Computing Atmospheric mass density...
Loading historical data...
Loading historical data...
Loading historical data...
Loading historical data...
Loading historical data...
Loading historical data...
Loading historical data...

Documentation

Showing up to 5 results
|